Regional Weather Roundup
Issued by NWS

Home | Current Version | Previous Version | Graphics & Text | Print | Product List | Glossary On
Versions: 1 2 3 4 5 6 7 8 9 10 11 12 13 14 15 16 17 18 19 20 21 22 23 24 25 26 27 28 29 30 31 32 33 34 35 36 37 38 39 40 41 42 43 44 45 46 47 48 49 50
000
ASUS43 KMPX 291110
RWRMN
WEATHER ROUNDUP FOR MINNESOTA
NATIONAL WEATHER SERVICE TWIN CITIES/CHANHASSEN MN
600 AM CDT THU SEP 29 2016


NOTE: "FAIR" INDICATES FEW OR NO CLOUDS BELOW 12,000 FEET WITH NO
SIGNIFICANT WEATHER AND/OR OBSTRUCTIONS TO VISIBILITY. N/A MEANS
CURRENT SKY AND/OR WEATHER CONDITIONS ARE NOT AVAILABLE.

MNZ060>063-068>070-291200-
   Twin Cities Metro

CITY           SKY/WX    TMP DP  RH WIND       PRES   REMARKS
TWIN CITIES    PTCLDY    47  45  93 N5        30.43
ST PAUL        CLOUDY    49  47  93 CALM      30.44S
CRYSTAL        CLEAR     45  42  89 N3        30.43R
BLAINE         CLEAR     46  46 100 N3        30.44R
LAKEVILLE      CLEAR     46  46 100 N3        30.42S
EDEN PRAIRIE   CLEAR     50  47  89 NE7       30.42R
LAKEVILLE      CLEAR     46  46 100 N3        30.42S
SOUTH ST PAUL  CLEAR     48  47  97 N3        30.43S
LAKE ELMO      FAIR      46  46 100 CALM      30.44R
$$
MNZ001>005-007-008-013>017-022>024-027-028-291200-
   Northwest Minnesota

CITY           SKY/WX    TMP DP  RH WIND       PRES   REMARKS
BEMIDJI        CLOUDY    48  47  95 CALM      30.48R
HALLOCK        CLEAR     45  43  93 CALM      30.47R
ROSEAU         CLOUDY    52  46  82 CALM      30.48S
WARROAD        CLOUDY    52  46  82 CALM      30.49S
THIEF RVR FALL CLOUDY    49  47  93 E6        30.49R
CROOKSTON      CLOUDY    52  48  87 CALM      30.48R
FOSSTON        PTCLDY    43  39  87 CALM      30.48S
DETROIT LAKES  CLEAR     45  45 100 NE3       30.47S
MOORHEAD       CLOUDY    43  43 100 CALM      30.47S
PARK RAPIDS    CLOUDY    48  44  86 CALM      30.46S
MAHNOMEN       FAIR      40  40  98 E3        30.47R
$$
MNZ006-009>011-018-025>026-291200-
   North Central Minnesota

CITY           SKY/WX    TMP DP  RH WIND       PRES   REMARKS
BAUDETTE       CLOUDY    50  47  89 CALM      30.49S
FLAG ISLAND    CLOUDY    55  46  71 SE3       30.48R
INTL FALLS     CLOUDY    53  49  86 CALM      30.49R
WASKISH        CLOUDY    50  48  93 CALM      30.49R
BIG FORK       CLOUDY    52  48  87 CALM      30.49R
GRAND RAPIDS   CLOUDY    51  50  96 CALM      30.49R
CRANE LAKE     CLOUDY    48  48 100 CALM      30.51R
ORR            CLOUDY    52  48  87 CALM      30.47R
COOK           CLOUDY    52  50  93 CALM      30.49R
WALKER         CLOUDY    48  47  95 CALM      30.47R
$$
MNZ012-019>021-037-291200-
   Northeast Minnesota

CITY           SKY/WX    TMP DP  RH WIND       PRES   REMARKS
DULUTH         CLOUDY    52  51  97 N3        30.46R
ELY            CLOUDY    52  50  93 CALM      30.48S
HIBBING        CLOUDY    51  50  96 CALM      30.47S
EVELETH        CLOUDY    53  50  90 CALM      30.49R
DULUTH HARBOR  CLOUDY    55  52  88 N3        30.47S
TWO HARBORS    CLOUDY    55  52  88 N3        30.46R
SILVER BAY     CLOUDY    54  52  94 CALM      30.46R
GRAND MARAIS     N/A     54  47  77 VRB6      30.47R
G MARAIS ARPRT CLOUDY    48  43  81 N6        30.49R
$$
MNZ029>031-032-039>041-046>048-054>057-064-291200-
   West Central Minnesota

CITY           SKY/WX    TMP DP  RH WIND       PRES   REMARKS
FERGUS FALLS   MOCLDY    45  45 100 E5        30.48R
MORRIS         CLEAR     45  43  93 E5        30.45R
ALEXANDRIA     PTCLDY    44  44 100 CALM      30.47R
ELBOW LAKE     CLOUDY    49  46  88 SE6       30.46R
WADENA         CLOUDY    48  46  93 CALM      30.46R
GLENWOOD       CLEAR     48  45  87 N3        30.46R
BENSON         FOG       37  36  93 CALM      30.45R VSB 1
ORTONVILLE     CLOUDY    41  39  93 CALM      30.45R FOG
MADISON        CLOUDY    45  43  93 CALM      30.45R
WILLMAR        FAIR      45  43  93 CALM      30.46R
$$
MNZ033>034-036-042>043-049>051-058-059-291200-
   Central Minnesota

CITY           SKY/WX    TMP DP  RH WIND       PRES   REMARKS
ST CLOUD       CLEAR     46  45  96 N3        30.44S
SAUK CENTRE    FAIR      45  44  95 CALM      30.46R
PAYNESVILLE      N/A     40  40 100 CALM      30.46R FOG
AITKIN         CLOUDY    54  48  82 CALM      30.45R
PINE RIVER     CLOUDY    52  52 100 CALM      30.49R
BRAINERD       CLOUDY    52  50  93 N3        30.47R
STAPLES        CLOUDY    52  48  87 CALM      30.46S
LONG PRAIRIE   CLOUDY    52  46  82 CALM      30.46S
LITTLE FALLS   CLOUDY    48  45  87 CALM      30.47R
LITCHFIELD     CLEAR     48  46  93 CALM      30.45R
BUFFALO        CLEAR     47  45  91 N3        30.45R
MAPLE LAKE     CLEAR     47  47  97 N3        30.45R
HUTCHINSON     CLEAR     48  47  95 CALM      30.45R
$$
MNZ037-044-045-052-053-291200-
   East Central Minnesota

CITY           SKY/WX    TMP DP  RH WIND       PRES   REMARKS
PRINCETON      CLEAR     46  45  93 N5        30.45R
MORA           CLOUDY    46  45  93 CALM      30.47R
CAMBRIDGE      CLEAR     45  43  93 CALM      30.43R FOG
MOOSE LAKE     CLOUDY    50  48  93 CALM      30.45R
HINCKLEY       CLOUDY    50  50 100 N3        30.45S
CLOQUET        CLOUDY    52  48  87 CALM      30.46S
MCGREGOR       CLOUDY    52  50  93 CALM      30.47R
$$
MNZ071>073-080-081-089-090-097-098-291200-
   Southwest Minnesota

CITY           SKY/WX    TMP DP  RH WIND       PRES   REMARKS
MONTEVIDEO     CLEAR     43  43 100 CALM      30.46S
GRANITE FALLS  CLEAR     42  41  97 CALM      30.46S
CANBY          CLOUDY    40  40  97 NW3       30.46R
MARSHALL       CLOUDY    38  37  97 W5        30.45R
REDWOOD FALLS  CLEAR     48  44  86 N5        30.43R
OLIVIA         CLEAR     43  41  93 N3        30.43S
PIPESTONE      CLOUDY    45  43  93 NE3       30.42S
WINDOM         CLEAR     45  45 100 N6        30.42S
WORTHINGTON    CLEAR     45  43  93 N7        30.43R
JACKSON        PTCLDY    43  41  93 N3        30.42R
TRACY          CLEAR     46  45  99 CALM      30.44R
$$
MNZ065>067-074>077-082>085-091>093-291200-
   South Central Minnesota

CITY           SKY/WX    TMP DP  RH WIND       PRES   REMARKS
MANKATO        CLEAR     47  46  97 N7        30.42S
ST JAMES       CLEAR     45  45 100 CALM      30.43S
FAIRMONT       CLEAR     45  45 100 N7        30.42R
GLENCOE        CLEAR     48  48 100 N3        30.43R
FARIBAULT      CLEAR     46  46 100 N3        30.42R
OWATONNA       FOG       43  39  87 CALM      30.41R VSB 1/2
WASECA         CLEAR     45  43  93 N3        30.42R
ALBERT LEA     CLOUDY    52  50  93 NE7       30.40R
$$
MNZ078>079-086>088-094>096-291200-
   Southeast Minnesota

CITY           SKY/WX    TMP DP  RH WIND       PRES   REMARKS
ROCHESTER      MOCLDY    50  49  96 N6        30.40R
RED WING       CLEAR     46  45  93 CALM      30.41R
STANTON        CLEAR     45  43  93 CALM      30.41R FOG
DODGE CENTER   PTCLDY    45  45 100 N3        30.40R
WINONA         CLEAR     50  48  93 CALM      30.39R
AUSTIN         CLOUDY    52  48  87 N5        30.39R
PRESTON        PTCLDY    47  45  95 N6        30.38R
$$
ABBREVIATIONS USED IN REMARKS
   TC - TEMPERATURES IN CELSIUS
  WCI - WIND CHILL INDEX
   HX - HEAT INDEX
  VSB - VISIBILITY
$$



USA.gov is the U.S. government's official web portal to all federal, state and local government web resources and services.